Simultaneous Nadir Overpasses (SNOs) Predictions

Prediction of SNOs between AQUA and GOES-15 Satellite Orbit:

Table of predicted SNOs for the next 14.0 days since TLE Epoch: 11/22/2019
Index Date Time (AQUA) AQUA Lat,Lon GOES-15 Lat,Lon Distance(km) Time Diff (sec)
1 11/24/2019 10:06:58 -0.06,-127.91 0.04,-128.48 64.41 80
2 11/26/2019 09:54:46 -0.67,-124.95 0.05,-128.46 398.63 80
3 11/26/2019 22:16:10 -0.40,-130.14 -0.03,-128.42 196.33 80
4 11/28/2019 22:03:58 0.22,-127.18 -0.03,-128.39 137.22 80
5 11/29/2019 10:25:15 0.82,-132.35 0.02,-128.42 446.68 80
6 11/30/2019 21:51:46 0.84,-124.22 -0.04,-128.36 470.44 80
7 12/01/2019 10:13:03 0.20,-129.39 0.02,-128.39 113.56 80
8 12/03/2019 10:00:51 -0.42,-126.43 0.02,-128.35 219.42 80
9 12/03/2019 22:22:14 -0.71,-131.61 -0.00,-128.31 375.89 80
10 12/05/2019 22:10:02 -0.08,-128.65 -0.00,-128.27 43.14 80




NCC Satellite Simultaneous Nadir Overpasses (SNOs) Prediction Service
